Find Starlink 11663

NORAD ID: 63668 Int'l Des: 2025-085 Owner: SPXS Country: US Constellation: starlink operational
LEOCIRCULAR

Live-Position

3D-Globus wird geladen...

Über Starlink 11663

Beschreibung wird geladen...

Nächste Überflüge

Passes for default location (London). Set your location on the main map for personalized predictions.

Höhenverlauf

Loading altitude history...

Zweizeiliger Elementsatz

1 63668U 25085E 26126.45733402 .00186697 00000-0 14238-2 0 9991
2 63668 42.9981 290.5285 0001310 217.9108 142.1667 15.70877943 59336
Epoch: 6. Mai 2026 • Age: 12 hours

Aktueller Status

Höhe 355.8 km
Geschwindigkeit 7.70 km/s
Subsatellitenpunkt 5.02°N, 79.8°E
Startdatum 28. Apr. 2025
Alter 1 years
Typ internet

Technische Details

Klassifizierung Payload
Masse 960.00 kg
Trockenmasse 910.00 kg
Gesamtmasse 960.00 kg
Länge 0.30 m
Durchmesser 4.10 m
Spannweite 29.00 m
Form Box + pan
Hersteller SPXS
Bus-Typ Starlink V2MD
Phasenstatus In Orbit
Besitzer/Staat SPXS/US

Most Searched